Location: Chandolas
(44.4033°N, 4.2533°E)
Time: 22:06:26
(UTC+00:00)

Cosmos 1892 - Pass Details

Date: 15 November 2019
Orbit: 504 x 526 km, 82.5° (Epoch: 06 December)

Event Time Altitude Azimuth Distance (km) Brightness Sun altitude
Rises 04:25:48 0° 168° (SSE) 2,612 6.5 -23.6°
Reaches altitude 10° 04:28:02 10° 159° (SSE) 1,727 5.6 -23.3°
Maximum altitude 04:31:31 36° 92° (E) 823 4.2 -22.6°
Drops below altitude 10° 04:35:00 10° 25° (NNE) 1,732 5.6 -22.0°
Sets 04:37:14 0° 17° (NNE) 2,620 6.4 -21.6°
